TimeCDT,TemperatureF,Dew PointF,Humidity,Sea Level PressureIn,VisibilityMPH,Wind Direction,Wind SpeedMPH,Gust SpeedMPH,PrecipitationIn,Events,Conditions,WindDirDegrees,DateUTC
12:52 AM,45.0,32.0,60,30.08,10.0,North,4.6,-,N/A,,Clear,360,2013-04-05 05:52:00
1:52 AM,43.0,30.0,60,30.09,10.0,North,6.9,-,N/A,,Clear,350,2013-04-05 06:52:00
2:52 AM,41.0,28.9,62,30.09,10.0,North,3.5,-,N/A,,Clear,350,2013-04-05 07:52:00
3:52 AM,41.0,28.0,60,30.11,10.0,NNW,3.5,-,N/A,,Clear,340,2013-04-05 08:52:00
4:52 AM,37.9,28.0,68,30.13,10.0,North,5.8,-,N/A,,Clear,350,2013-04-05 09:52:00
5:52 AM,37.0,26.1,65,30.16,10.0,North,5.8,-,N/A,,Clear,360,2013-04-05 10:52:00
6:52 AM,36.0,26.1,67,30.18,10.0,NNE,5.8,-,N/A,,Clear,30,2013-04-05 11:52:00
7:52 AM,39.0,27.0,62,30.20,10.0,NE,5.8,-,N/A,,Clear,50,2013-04-05 12:52:00
8:52 AM,42.1,26.1,53,30.22,10.0,East,13.8,-,N/A,,Clear,80,2013-04-05 13:52:00
9:52 AM,45.0,25.0,46,30.23,10.0,ENE,9.2,18.4,N/A,,Clear,70,2013-04-05 14:52:00
10:52 AM,46.4,24.8,43,30.22,10.0,East,12.7,-,N/A,,Clear,80,2013-04-05 15:52:00
11:52 AM,50.0,24.1,36,30.21,10.0,East,10.4,-,N/A,,Clear,80,2013-04-05 16:52:00
12:52 PM,53.1,24.1,32,30.18,10.0,East,12.7,20.7,N/A,,Clear,80,2013-04-05 17:52:00
1:52 PM,55.0,21.9,28,30.16,10.0,East,10.4,-,N/A,,Clear,90,2013-04-05 18:52:00
2:52 PM,57.0,21.0,25,30.14,10.0,ENE,10.4,-,N/A,,Clear,60,2013-04-05 19:52:00
3:52 PM,55.9,19.9,25,30.12,10.0,East,9.2,16.1,N/A,,Partly Cloudy,90,2013-04-05 20:52:00
4:52 PM,55.9,19.9,25,30.11,10.0,ENE,3.5,-,N/A,,Scattered Clouds,60,2013-04-05 21:52:00
5:52 PM,55.0,21.0,27,30.10,10.0,ENE,8.1,-,N/A,,Scattered Clouds,70,2013-04-05 22:52:00
6:52 PM,53.1,21.9,30,30.07,10.0,East,12.7,-,N/A,,Overcast,100,2013-04-05 23:52:00
7:52 PM,52.0,21.9,31,30.06,10.0,East,9.2,-,N/A,,Mostly Cloudy,90,2013-04-06 00:52:00
8:52 PM,50.0,24.1,36,30.05,10.0,ESE,11.5,-,N/A,,Clear,110,2013-04-06 01:52:00
9:52 PM,46.0,25.0,44,30.06,10.0,East,10.4,-,N/A,,Clear,100,2013-04-06 02:52:00
10:52 PM,46.0,21.9,39,30.05,10.0,ESE,19.6,29.9,N/A,,Clear,120,2013-04-06 03:52:00
11:52 PM,44.1,21.0,40,30.04,10.0,ESE,17.3,23.0,N/A,,Clear,120,2013-04-06 04:52:00